Find Starlink 36957

NORAD ID: 67989 Int'l Des: 2026-039 Owner: SPXS Country: US Constellation: starlink operational
LEOCIRCULAR

当前视图

正在加载3D地球...

关于 Starlink 36957

正在加载描述...

即将过境

Passes for default location (London). Set your location on the main map for personalized predictions.

高度历史

Loading altitude history...

两行轨道根数

1 67989U 26039D 26150.83403420 .00031974 00000-0 11656-2 0 9992
2 67989 43.0050 305.2591 0004177 260.1405 99.8975 15.27597370 14261
Epoch: May 30, 2026 • Age: 26 hours

当前状态

高度 488.7 km
速度 7.63 km/s
星下点 43.00°N, 177.09°W
发射日期 Feb 27, 2026
运行时间 0.2 years
类型 internet

技术详情

分类 Payload
质量 575.00 kg
干质量 530.00 kg
总质量 575.00 kg
长度 0.30 m
直径 4.10 m
跨度 29.00 m
形状 Box + pan
制造商 SPXS
平台类型 Starlink V2MO
阶段状态 In Orbit
所有者/国家 SPXS/US

Most Searched